Date,TemperatureHighF,TemperatureAvgF,TemperatureLowF,DewpointHighF,DewpointAvgF,DewpointLowF,HumidityHigh,HumidityAvg,HumidityLow,PressureMaxIn,PressureMinIn,WindSpeedMaxMPH,WindSpeedAvgMPH,GustSpeedMaxMPH,PrecipitationSumIn
2013-1-1,76.8,70.9,64.3,64.9,62.3,58.8,93,75,62,30.19,30.04,13,2,18,0.00
2013-1-2,81.6,70.5,61.3,68.6,64.9,60.4,98,84,58,30.09,29.99,7,0,8,0.00
2013-1-3,81.7,72.3,66.0,70.1,66.7,64.2,98,84,59,30.13,30.02,9,1,14,0.00
2013-1-4,81.9,72.1,64.5,72.9,68.5,63.6,98,89,68,30.21,30.09,6,1,8,0.01
2013-1-5,77.5,70.0,66.8,71.3,67.6,65.7,97,93,79,30.24,30.14,9,2,12,0.01
2013-1-6,80.0,72.8,65.8,72.9,69.3,65.0,99,89,74,30.18,30.05,12,2,16,0.02
2013-1-7,77.1,70.8,66.2,69.7,67.9,65.4,98,91,76,30.16,30.06,7,1,12,0.01
2013-1-8,80.3,74.3,66.8,72.9,70.4,65.9,99,88,73,30.19,30.06,16,3,20,0.01
2013-1-9,79.7,76.6,74.1,72.6,71.3,69.2,91,84,77,30.27,30.15,17,6,23,0.00
2013-1-10,78.8,75.4,71.5,69.4,67.7,64.4,87,77,64,30.29,30.17,15,5,23,0.00
2013-1-11,79.0,74.6,67.9,70.2,68.3,65.7,95,81,67,30.25,30.14,12,4,17,0.00
2013-1-12,79.3,73.5,67.1,70.0,67.7,65.0,97,83,66,30.17,30.08,13,3,18,0.00
2013-1-13,78.8,73.0,67.0,69.5,66.2,62.9,96,80,65,30.12,30.06,12,3,18,0.00
2013-1-14,78.6,70.8,64.4,66.5,64.6,62.6,96,82,63,30.16,30.10,14,2,16,0.00
2013-1-15,79.1,70.7,64.0,70.8,66.0,62.8,99,86,69,30.13,30.04,12,2,17,0.00
2013-1-16,79.6,70.8,62.6,70.4,66.7,61.7,99,88,72,30.10,30.00,10,2,16,0.02
2013-1-17,80.1,70.2,60.4,71.8,66.4,54.2,99,88,72,30.10,29.97,15,3,27,0.13
2013-1-18,69.8,62.4,53.9,61.8,54.4,47.9,84,75,66,30.24,30.10,12,4,15,0.00
2013-1-19,71.6,67.1,62.3,67.2,64.0,59.5,97,90,72,30.21,30.09,9,1,12,0.07
2013-1-20,80.4,70.2,64.0,69.4,66.3,63.4,99,88,61,30.15,30.00,7,1,9,0.01
2013-1-21,80.3,71.9,65.0,71.4,67.5,64.1,98,87,70,30.06,29.95,8,1,12,0.01
2013-1-22,75.0,67.4,61.7,64.7,60.5,56.1,95,79,61,30.21,30.00,10,4,16,0.01
2013-1-23,72.5,65.3,60.4,60.7,57.3,54.8,90,76,56,30.29,30.18,13,2,17,0.00
2013-1-24,74.1,65.0,57.2,57.8,55.1,52.2,91,72,51,30.29,30.18,8,2,12,0.00
2013-1-25,74.6,68.2,60.3,60.6,58.0,53.8,93,72,49,30.27,30.17,10,2,17,0.00
2013-1-26,76.7,66.0,57.4,63.6,59.2,53.5,96,80,53,30.25,30.15,10,1,14,0.00
2013-1-27,76.4,68.2,60.6,66.0,62.6,59.5,97,83,64,30.27,30.19,11,2,18,0.01
2013-1-28,77.7,74.0,69.6,67.6,65.2,61.0,83,74,60,30.31,30.21,14,5,21,0.00
2013-1-29,78.8,73.3,66.4,70.1,67.3,64.3,96,82,70,30.22,30.11,13,4,17,0.00
2013-1-30,78.7,73.2,67.7,68.4,66.3,64.7,96,80,67,30.11,29.96,15,4,24,0.00
2013-1-31,72.4,66.4,59.8,71.5,61.3,43.6,98,84,55,30.17,29.95,15,3,22,0.01
2013-2-1,71.8,61.9,51.1,56.3,50.1,41.3,77,66,55,30.27,30.16,13,5,16,0.00
2013-2-2,71.8,63.1,55.2,57.6,51.2,39.2,93,67,49,30.26,30.11,11,2,15,0.00
2013-2-3,73.5,62.4,52.6,56.1,51.2,39.1,96,70,33,30.17,30.06,10,2,13,0.00
2013-2-4,74.0,60.6,49.3,58.1,50.6,43.6,90,72,42,30.15,30.02,9,1,12,0.00
2013-2-5,78.0,65.8,54.4,64.1,59.2,52.9,98,81,52,30.08,29.99,8,1,12,0.01
2013-2-6,78.1,69.4,60.7,66.8,63.3,59.6,98,82,63,30.10,30.02,9,2,13,0.01
2013-2-7,80.3,71.1,62.0,67.7,64.0,60.6,98,79,59,30.07,29.94,10,2,14,0.00
2013-2-8,84.5,72.9,67.4,73.1,68.5,59.8,97,87,62,30.03,29.92,10,2,15,0.10
2013-2-9,77.6,70.3,63.0,68.5,63.9,58.9,98,81,66,30.16,30.01,14,3,18,0.00
2013-2-10,75.7,71.7,67.0,65.8,62.8,59.6,85,74,60,30.24,30.14,17,5,22,0.00
2013-2-11,77.5,71.3,63.8,67.3,64.8,61.6,94,80,68,30.21,30.10,12,3,16,0.00
2013-2-12,85.8,72.7,62.5,69.9,66.4,61.6,99,82,49,30.11,29.97,11,2,16,0.00
2013-2-13,85.3,75.1,66.5,72.8,69.8,65.7,99,85,61,30.01,29.90,11,3,17,0.01
2013-2-14,85.8,73.1,62.2,73.6,68.3,60.8,96,86,60,30.01,29.85,17,4,27,0.67
2013-2-15,71.2,66.1,62.7,68.1,64.8,61.5,98,96,87,30.02,29.94,8,2,12,0.61
2013-2-16,74.9,65.2,54.8,64.5,57.6,46.7,98,79,40,30.08,29.88,16,4,23,0.01
2013-2-17,57.1,51.6,45.5,47.3,33.0,23.3,79,51,30,30.31,30.08,17,6,23,0.00
2013-2-18,68.4,59.2,46.8,57.7,47.4,36.3,76,65,52,30.31,30.20,14,4,22,0.00
2013-2-19,76.3,68.6,57.7,66.6,61.9,55.1,96,80,67,30.20,30.08,13,3,16,0.00
2013-2-20,77.2,69.9,63.8,68.0,64.9,60.5,98,85,57,30.11,30.00,12,2,20,0.00
2013-2-21,78.8,71.5,64.3,68.8,66.1,63.4,99,84,65,30.09,29.99,12,2,16,0.01
2013-2-22,80.7,75.0,70.3,71.8,70.0,66.7,93,85,69,30.09,30.01,16,4,17,0.00
2013-2-23,83.0,76.2,70.7,72.7,70.7,68.2,96,84,69,30.04,29.91,13,3,20,0.00
2013-2-24,89.0,76.4,69.4,74.7,70.6,65.9,99,84,48,29.99,29.88,8,1,12,0.00
2013-2-25,83.7,75.4,67.7,73.9,70.0,66.8,98,84,65,29.91,29.80,13,2,18,0.01
2013-2-26,85.3,78.8,74.6,73.5,71.6,69.5,91,79,62,29.90,29.80,14,5,22,0.00
2013-2-27,76.0,70.3,65.2,73.1,67.2,63.8,96,90,73,29.96,29.86,9,2,12,0.22
2013-2-28,70.2,64.5,60.4,64.4,56.9,50.7,96,77,55,30.00,29.90,9,2,14,0.00
2013-3-1,65.5,62.0,58.1,57.5,53.3,48.3,87,73,62,29.99,29.90,11,3,14,0.01
2013-3-2,67.3,57.7,50.2,49.4,45.0,41.1,88,63,46,30.04,29.95,14,5,20,0.00
2013-3-3,63.1,54.8,49.2,47.8,45.0,42.1,89,70,49,30.14,29.97,15,4,23,0.01
2013-3-4,67.2,54.1,43.7,47.6,40.9,34.2,87,64,31,30.22,30.12,12,3,17,0.00
2013-3-5,75.0,62.3,48.5,58.7,53.6,44.6,96,75,48,30.18,30.08,9,2,14,0.00
2013-3-6,78.6,64.7,52.6,65.9,53.2,32.8,98,70,29,30.11,29.96,16,4,23,0.00
2013-3-7,71.6,57.5,46.7,54.1,44.5,38.1,91,64,36,30.18,30.08,9,2,13,0.00
2013-3-8,74.8,62.8,52.2,56.2,51.7,44.1,94,71,34,30.20,30.09,8,2,12,0.00
2013-3-9,74.0,64.1,52.4,59.0,54.6,49.6,94,72,54,30.19,30.10,12,3,15,0.00
2013-3-10,73.4,68.7,62.2,61.9,57.3,54.1,83,67,58,30.15,30.05,14,3,18,0.00
2013-3-11,75.0,70.4,63.4,63.6,61.5,59.0,92,74,64,30.10,29.95,14,4,20,0.00
2013-3-12,82.7,72.0,61.8,70.0,65.6,60.3,96,81,58,30.00,29.91,13,3,20,0.00
2013-3-13,75.5,65.7,56.4,65.7,55.6,45.3,93,72,38,30.12,29.98,12,4,17,0.00
2013-3-14,72.1,61.3,53.9,53.4,47.1,36.6,90,63,29,30.20,30.09,14,4,18,0.00
2013-3-15,71.3,61.2,51.8,54.9,50.7,46.8,90,70,46,30.25,30.14,11,2,16,0.00
2013-3-16,73.5,63.2,52.3,58.2,54.3,49.4,97,75,53,30.19,30.08,14,2,14,0.00
2013-3-17,75.3,65.6,56.0,62.3,58.5,54.6,97,79,58,30.14,30.02,12,2,16,0.01
2013-3-18,78.3,69.8,61.2,70.2,65.4,59.4,97,87,70,30.08,29.96,12,2,18,0.06
2013-3-19,79.5,72.2,66.4,70.6,67.8,64.9,98,87,65,30.02,29.84,11,1,17,0.04
2013-3-20,87.0,73.1,62.7,70.4,64.0,58.1,98,76,47,29.98,29.79,15,2,20,0.01
2013-3-21,75.5,66.8,58.8,61.8,55.3,46.7,94,70,41,29.94,29.83,10,3,14,0.00
2013-3-22,75.1,67.6,57.3,69.0,62.3,55.1,97,84,66,30.00,29.89,13,3,20,0.00
2013-3-23,86.5,77.7,69.0,75.6,71.4,67.5,98,82,59,29.98,29.81,13,3,16,0.01
2013-3-24,88.1,79.4,73.4,74.2,72.5,71.1,97,81,59,29.89,29.70,21,6,29,0.02
2013-3-25,78.8,74.0,64.4,73.2,62.4,38.1,96,70,38,30.00,29.75,12,4,15,0.13
2013-3-26,67.5,60.7,51.7,48.3,41.2,34.4,71,50,34,30.22,29.99,16,6,21,0.00
2013-3-27,68.3,56.1,45.3,48.5,41.8,36.3,80,60,41,30.25,30.16,12,4,17,0.00
2013-3-28,73.9,61.1,49.4,52.1,46.6,37.1,87,62,29,30.27,30.15,9,2,13,0.00
2013-3-29,72.8,64.7,54.8,56.5,51.3,42.8,82,63,47,30.28,30.19,12,3,18,0.00
2013-3-30,73.5,65.3,55.5,60.1,54.7,48.7,96,71,44,30.25,30.15,12,2,17,0.00
2013-3-31,78.8,68.9,58.6,67.1,62.0,55.2,96,80,59,30.19,30.04,14,3,20,0.00
2013-4-1,87.2,73.2,65.4,72.3,67.4,63.6,97,84,49,30.05,29.95,13,2,17,0.28
2013-4-2,83.8,72.3,63.3,68.7,65.8,62.3,99,82,51,30.08,29.99,8,2,12,0.01
2013-4-3,81.0,74.2,65.9,70.6,68.0,64.8,98,82,61,30.07,29.98,13,3,18,0.00
2013-4-4,83.9,74.6,66.9,73.5,69.9,65.0,97,86,67,30.04,29.91,14,3,20,0.39
2013-4-5,71.5,67.4,64.2,70.2,65.8,63.0,98,95,88,29.98,29.82,11,2,18,1.23
2013-4-6,77.0,67.7,58.8,66.2,61.4,56.9,96,81,64,30.08,29.93,12,4,20,0.00
2013-4-7,75.7,70.6,64.8,67.7,65.0,61.3,94,83,70,30.13,30.01,13,2,16,0.11
2013-4-8,79.1,71.1,61.4,67.6,62.7,58.6,98,77,50,30.12,30.04,13,2,15,0.01
2013-4-9,79.0,73.3,64.8,70.2,66.6,63.0,97,80,68,30.14,30.04,14,3,20,0.00
2013-4-10,82.0,76.4,69.7,73.1,70.6,66.7,91,83,71,30.10,29.99,13,5,21,0.00
2013-4-11,81.8,77.8,75.3,73.4,71.9,70.4,88,82,74,30.01,29.89,14,6,20,0.00
2013-4-12,86.7,80.5,76.6,77.1,74.4,72.4,91,82,70,29.95,29.86,14,4,18,0.00
2013-4-13,82.8,77.7,72.9,75.7,73.3,70.7,95,87,72,29.97,29.87,10,2,15,0.15
2013-4-14,85.5,78.5,72.5,75.3,73.2,70.8,98,85,63,29.96,29.88,16,3,17,0.00
2013-4-15,87.2,77.3,71.8,76.5,73.2,69.2,98,88,64,30.05,29.92,10,2,14,0.18
2013-4-16,83.9,77.6,70.8,76.5,72.9,68.5,98,86,70,30.11,30.01,11,3,15,0.20
2013-4-17,81.8,77.3,73.8,73.0,71.6,69.8,91,83,71,30.10,30.01,12,3,20,0.00
2013-4-18,84.5,78.9,72.9,74.7,71.3,68.0,93,78,60,30.05,29.97,13,4,16,0.00
2013-4-19,85.8,80.3,75.1,74.4,72.5,69.1,87,77,60,30.04,29.95,15,5,22,0.00
2013-4-20,89.8,78.3,70.9,76.8,73.1,67.0,97,85,48,30.08,29.91,20,2,27,1.21
2013-4-21,82.3,76.2,71.8,74.3,72.3,69.5,96,88,67,30.08,29.98,13,3,20,0.04
2013-4-22,80.8,73.4,68.7,73.0,70.2,67.5,98,90,72,30.05,29.91,11,2,14,2.29
2013-4-23,81.2,74.2,66.7,70.9,67.1,63.3,98,80,62,30.08,29.95,16,5,21,0.01
2013-4-24,80.7,75.2,65.8,68.4,65.4,62.3,95,72,60,30.13,30.03,11,3,16,0.00
2013-4-25,81.1,74.8,65.4,68.9,63.8,61.1,95,70,53,30.19,30.07,11,3,17,0.00
2013-4-26,80.0,73.6,64.4,67.7,65.0,61.8,93,76,59,30.21,30.10,13,3,23,0.00
2013-4-27,79.3,75.7,70.8,69.2,65.4,61.8,81,71,58,30.19,30.07,14,4,20,0.00
2013-4-28,80.1,76.1,73.1,67.9,65.8,62.8,81,71,60,30.10,29.98,14,5,20,0.00
2013-4-29,81.8,75.6,72.0,73.0,69.5,65.0,96,82,71,30.02,29.93,13,3,20,0.21
2013-4-30,82.1,73.7,70.0,74.7,70.6,67.7,99,91,71,30.00,29.92,14,1,21,1.12
2013-5-1,83.1,74.3,69.4,74.9,71.0,68.5,98,90,71,29.99,29.89,10,2,13,0.33
2013-5-2,79.7,72.5,68.1,73.8,70.1,66.8,98,92,73,29.95,29.78,16,2,23,1.57
2013-5-3,86.8,75.1,66.8,71.7,69.1,65.9,98,83,53,29.81,29.66,12,2,20,0.04
2013-5-4,86.7,74.3,67.4,72.1,69.2,66.5,98,86,56,29.76,29.69,11,2,16,0.06
2013-5-5,81.3,75.9,65.9,67.7,62.8,57.1,86,64,53,29.93,29.83,11,3,15,0.00
2013-5-6,85.5,73.2,58.6,66.2,60.9,55.9,94,67,41,30.01,29.91,11,2,14,0.00
2013-5-7,85.7,74.2,64.2,66.1,62.0,56.9,89,68,39,30.06,29.96,12,3,15,0.00
2013-5-8,87.1,74.2,61.3,66.6,61.8,59.0,97,68,40,30.13,30.04,10,1,14,0.00
2013-5-9,84.9,74.8,64.9,75.5,68.1,60.0,96,81,58,30.13,30.05,12,2,14,0.33
2013-5-10,85.8,78.5,70.2,74.9,72.4,67.8,98,82,62,30.12,30.01,13,2,15,0.00
2013-5-11,86.3,77.9,72.4,76.0,73.3,69.9,98,87,66,30.06,29.98,13,2,20,0.14
2013-5-12,90.5,78.6,72.0,75.3,72.7,69.6,98,83,53,30.06,29.94,10,2,16,0.02
2013-5-13,89.2,78.6,69.8,74.6,70.9,67.0,98,79,52,30.08,29.99,11,2,14,0.00
2013-5-14,79.6,75.6,69.9,69.9,63.7,57.6,85,68,54,30.17,30.05,13,4,18,0.00
2013-5-15,79.9,74.8,66.4,65.8,62.7,58.8,85,67,52,30.17,30.08,12,4,20,0.00
2013-5-16,80.8,74.8,65.4,67.2,63.8,59.8,93,70,57,30.11,30.03,10,3,15,0.00
2013-5-17,88.5,77.8,69.4,72.6,69.4,65.2,93,77,48,30.08,30.00,11,2,17,0.00
2013-5-18,83.8,77.8,72.4,75.6,72.3,70.4,97,84,72,30.09,30.02,12,2,17,0.01
2013-5-19,83.8,77.9,70.8,73.0,70.5,67.2,98,79,61,30.09,29.98,12,3,14,0.01
2013-5-20,81.0,75.3,69.5,75.1,72.2,67.7,97,90,76,30.06,29.96,14,2,20,1.42
2013-5-21,82.7,75.0,69.8,75.1,71.6,68.7,98,89,76,30.04,29.92,16,2,20,0.85
2013-5-22,86.5,77.1,72.1,77.7,72.8,69.0,98,87,63,29.95,29.87,14,1,20,0.21
2013-5-23,91.8,81.1,72.5,77.0,73.1,66.9,98,79,46,30.00,29.91,11,2,13,0.00
2013-5-24,91.7,80.7,72.6,76.9,73.2,61.1,96,79,49,30.05,29.94,18,2,27,0.01
2013-5-25,83.8,79.4,74.1,74.3,70.2,65.9,93,75,58,30.15,30.02,14,4,20,0.00
2013-5-26,82.5,77.7,71.0,69.7,67.2,64.1,84,70,55,30.16,30.09,13,4,18,0.00
2013-5-27,82.8,79.0,74.3,73.6,71.3,67.0,89,77,71,30.14,30.04,14,6,23,0.01
2013-5-28,81.6,77.4,73.4,74.0,72.8,70.7,96,86,75,30.10,30.03,15,6,23,0.40
2013-5-29,79.3,75.8,72.0,74.5,71.9,68.4,96,88,78,30.08,30.01,22,5,29,0.79
2013-5-30,81.0,78.0,74.9,75.1,72.6,69.5,94,83,78,30.05,29.98,20,7,29,0.21
2013-5-31,82.8,78.9,75.6,75.4,74.0,72.4,93,85,75,30.04,29.98,13,4,16,0.01
2013-6-1,84.0,77.0,73.3,77.5,74.2,71.6,97,91,78,30.02,29.94,11,2,13,0.28
2013-6-2,88.2,78.2,72.5,77.2,74.1,71.4,99,88,66,29.99,29.92,12,1,18,0.06
2013-6-3,87.6,79.5,73.1,75.8,73.9,72.2,98,84,63,30.02,29.91,8,2,13,0.01
2013-6-4,82.3,78.1,73.6,77.5,74.7,71.8,97,89,75,30.04,29.95,8,1,10,0.19
2013-6-5,82.8,80.0,77.4,77.2,76.2,74.8,95,88,82,30.02,29.88,10,3,16,0.06
2013-6-6,88.1,79.5,74.0,79.4,76.0,71.0,96,89,72,29.91,29.78,17,5,26,1.03
2013-6-7,89.2,77.1,73.7,79.0,74.5,72.2,98,92,70,30.01,29.84,16,3,26,3.11
2013-6-8,87.0,80.3,73.9,79.2,75.9,72.8,98,87,72,30.09,29.95,12,2,16,0.02
2013-6-9,85.2,80.9,75.9,76.7,75.4,73.1,94,84,72,30.10,30.02,15,4,18,0.17
2013-6-10,85.9,82.2,78.8,77.9,76.4,74.7,92,83,72,30.08,30.00,12,4,15,0.00
2013-6-11,86.5,81.4,77.3,78.8,76.9,74.1,96,87,72,30.08,29.99,13,2,17,0.33
2013-6-12,87.8,78.4,74.0,79.2,75.3,69.5,97,91,66,30.08,30.00,8,0,14,0.06
2013-6-13,86.8,78.3,73.0,78.0,74.8,70.6,99,90,67,30.05,29.94,10,1,16,0.17
2013-6-14,93.1,80.6,72.1,77.2,74.0,70.5,98,82,54,29.97,29.86,11,2,17,0.02
2013-6-15,92.4,81.4,74.0,77.4,74.5,71.5,98,81,53,30.05,29.93,8,1,12,0.01
2013-6-16,88.0,82.2,75.2,78.8,75.7,73.1,97,82,64,30.08,30.00,12,2,17,0.00
2013-6-17,88.7,82.9,76.0,78.6,75.7,72.4,97,80,62,30.07,30.00,13,2,14,0.00
2013-6-18,88.3,82.8,76.4,78.6,76.1,74.3,97,81,67,30.06,29.98,11,2,16,0.00
2013-6-19,87.7,82.3,77.7,78.2,76.1,72.3,96,82,68,30.04,29.97,10,2,13,0.00
2013-6-20,89.3,81.0,74.8,77.4,74.0,70.5,92,80,61,30.08,30.01,12,2,17,0.00
2013-6-21,88.3,82.3,75.6,76.9,73.9,70.1,97,77,57,30.10,30.02,10,3,17,0.00
2013-6-22,87.9,82.1,75.3,77.9,74.6,69.4,95,79,59,30.09,30.02,12,2,17,0.09
2013-6-23,87.2,81.8,74.8,77.0,74.8,69.9,96,80,65,30.11,30.03,14,4,20,0.04
2013-6-24,86.1,82.2,77.4,77.5,74.7,72.7,90,78,69,30.15,30.06,14,4,18,0.13
2013-6-25,87.8,82.7,79.8,77.8,75.5,73.3,87,79,67,30.11,30.02,15,4,18,0.00
2013-6-26,88.0,82.1,76.2,78.1,75.3,69.7,96,81,59,30.07,30.00,12,3,17,0.22
2013-6-27,86.3,80.9,76.6,78.2,75.9,72.1,96,85,71,30.04,29.95,8,1,12,0.00
2013-6-28,89.8,81.6,75.3,78.4,75.3,71.4,98,82,62,29.99,29.85,9,1,13,0.05
2013-6-29,92.8,81.5,75.3,77.8,74.8,72.1,96,81,52,29.92,29.83,14,2,20,0.00
2013-6-30,86.7,79.1,76.6,77.3,75.0,73.5,95,87,71,29.94,29.85,14,2,18,0.32
2013-7-1,87.7,80.3,76.1,78.6,75.7,72.4,96,86,67,30.03,29.91,13,3,22,0.05
2013-7-2,85.7,79.7,76.1,79.3,76.0,73.3,96,89,77,30.11,29.97,14,2,21,0.09
2013-7-3,86.7,79.8,75.3,77.4,75.4,72.8,97,87,69,30.12,30.04,15,4,24,0.10
2013-7-4,87.0,81.0,74.0,77.8,75.3,69.8,97,83,67,30.15,30.05,15,5,24,0.19
2013-7-5,84.1,80.2,74.0,77.9,75.9,71.7,97,87,77,30.14,30.03,14,3,21,0.64
2013-7-6,86.2,82.2,78.7,76.3,75.0,71.3,89,79,64,30.11,30.01,13,5,20,0.03
2013-7-7,85.9,82.4,78.8,77.7,75.4,73.7,90,80,70,30.09,30.01,15,4,23,0.02
2013-7-8,86.4,82.1,76.4,75.6,74.0,71.6,91,77,63,30.13,30.06,12,3,17,0.00
2013-7-9,84.2,78.5,73.4,76.0,73.5,71.1,97,85,67,30.14,30.04,11,1,15,0.30
2013-7-10,83.8,77.5,73.0,76.6,74.0,69.7,97,89,76,30.08,30.00,13,1,16,0.25
2013-7-11,88.5,79.6,73.9,78.5,74.4,69.7,99,85,64,30.04,29.92,12,1,21,0.02
2013-7-12,87.3,78.0,75.2,78.6,74.7,71.1,97,90,64,29.98,29.90,11,0,15,0.18
2013-7-13,86.5,75.3,71.5,77.5,73.0,70.2,98,93,72,30.02,29.91,20,2,26,3.89
2013-7-14,85.3,79.0,70.5,76.3,73.3,69.3,97,84,69,30.08,30.01,12,4,17,1.39
2013-7-15,86.0,79.3,72.7,76.2,73.6,70.8,98,84,67,30.08,30.00,11,2,15,0.01
2013-7-16,82.0,77.4,73.1,75.0,72.8,70.5,96,86,70,30.13,30.03,15,3,24,0.39
2013-7-17,79.4,73.9,71.5,75.6,72.3,70.3,98,95,83,30.14,30.04,20,2,25,2.86
2013-7-18,83.2,75.7,71.7,77.6,73.2,70.2,98,92,76,30.12,30.06,13,2,20,0.94
2013-7-19,86.0,79.7,73.0,78.3,75.8,72.3,99,89,72,30.12,30.03,13,2,17,0.01
2013-7-20,85.8,80.3,74.1,79.0,76.5,70.7,97,89,69,30.11,30.02,12,2,20,0.36
2013-7-21,88.2,80.8,76.0,79.3,77.2,75.1,98,89,71,30.14,30.05,9,1,13,0.01
2013-7-22,89.3,82.3,76.2,77.9,75.8,71.9,97,82,59,30.14,30.05,9,2,13,0.00
2013-7-23,91.7,82.3,75.8,79.1,76.2,74.6,98,83,61,30.10,29.96,7,1,12,0.08
2013-7-24,93.3,84.0,76.8,79.1,75.8,72.3,97,78,52,30.03,29.91,14,2,22,0.00
2013-7-25,93.8,84.0,74.1,77.9,75.3,72.6,97,77,54,30.02,29.92,10,2,17,0.00
2013-7-26,92.7,82.4,75.4,79.1,76.4,73.0,96,83,58,30.03,29.92,13,2,25,0.29
2013-7-27,85.5,78.1,74.0,79.8,76.3,72.0,98,94,80,30.01,29.93,10,1,14,0.96
2013-7-28,88.7,80.4,75.2,79.2,76.0,71.2,98,87,64,30.07,29.95,10,1,13,0.10
2013-7-29,88.3,81.9,76.1,79.9,76.8,74.3,98,86,64,30.12,30.01,10,2,14,0.01
2013-7-30,87.8,81.8,77.5,79.5,77.4,74.9,96,87,72,30.16,30.07,11,2,16,0.30
2013-7-31,87.7,83.1,77.1,79.1,76.4,74.5,96,81,66,30.10,29.99,10,3,17,0.01
2013-8-1,87.0,82.4,76.6,76.5,75.1,73.3,93,79,66,30.05,29.93,11,3,20,0.00
2013-8-2,91.1,82.1,75.7,77.3,74.9,72.6,96,80,56,30.05,29.91,7,1,12,0.09
2013-8-3,85.1,77.9,73.5,79.7,75.9,71.4,98,94,80,30.13,30.01,11,0,16,0.33
2013-8-4,94.4,82.3,75.7,79.5,76.0,72.7,98,84,51,30.11,29.97,11,1,15,0.15
2013-8-5,91.5,81.5,76.2,81.0,76.5,73.0,98,86,63,30.04,29.94,9,1,13,0.01
2013-8-6,88.8,81.8,75.6,79.6,76.5,73.8,97,85,68,29.99,29.88,9,1,12,0.00
2013-8-7,87.7,81.6,76.3,79.1,76.3,74.7,98,84,68,29.97,29.90,11,2,17,0.02
2013-8-8,88.1,83.4,78.4,77.5,75.6,73.0,90,78,64,30.01,29.91,13,4,18,0.00
2013-8-9,86.0,81.1,75.7,78.1,74.8,71.3,96,82,66,30.05,29.94,16,4,23,0.10
2013-8-10,88.3,83.9,77.2,78.3,76.4,73.7,90,79,64,30.11,30.03,14,4,20,0.00
2013-8-11,88.2,84.2,80.9,78.1,76.9,75.3,88,79,68,30.12,30.05,12,4,16,0.00
2013-8-12,88.5,83.2,75.8,77.3,75.6,69.4,94,79,58,30.10,30.00,12,3,15,0.00
2013-8-13,89.1,83.8,77.8,79.6,75.7,72.2,94,78,59,30.04,29.95,11,2,14,0.00
2013-8-14,89.7,83.1,76.4,79.6,75.5,71.8,97,79,59,30.02,29.92,12,2,15,0.00
2013-8-15,85.3,80.0,77.1,78.8,77.0,74.7,96,91,76,30.06,29.96,8,1,12,0.28
2013-8-16,89.5,83.3,77.9,80.1,77.7,75.8,98,84,65,30.05,29.97,11,2,14,0.00
2013-8-17,88.7,83.9,79.8,79.3,77.9,74.8,95,83,68,30.07,29.99,12,3,16,0.03
2013-8-18,88.3,83.4,77.9,79.4,77.6,74.9,93,83,72,30.08,29.98,15,4,25,0.22
2013-8-19,88.4,82.7,76.6,79.3,76.9,74.4,97,83,65,30.07,29.95,16,3,20,0.06
2013-8-20,87.9,83.6,79.7,78.6,76.5,73.8,91,80,64,30.05,29.98,12,3,18,0.01
2013-8-21,87.8,82.2,76.3,79.9,77.8,73.5,96,87,72,30.06,29.99,14,3,22,0.48
2013-8-22,87.8,82.7,75.0,80.5,77.5,72.7,97,85,73,30.06,29.94,18,3,18,0.60
2013-8-23,87.9,82.0,77.0,79.8,77.2,75.4,96,86,70,30.01,29.93,11,2,16,0.10
2013-8-24,89.3,82.4,77.1,79.6,77.0,74.7,98,84,65,30.10,29.97,10,2,16,0.11
2013-8-25,85.7,80.3,76.4,77.4,75.6,73.2,96,86,71,30.14,30.02,8,2,12,0.01
2013-8-26,86.1,79.7,76.8,77.8,74.7,71.2,94,85,73,30.11,30.00,9,1,12,0.00
2013-8-27,84.0,78.6,74.6,76.2,74.4,70.4,96,87,73,30.04,29.95,8,1,10,0.08
2013-8-28,85.5,78.3,72.4,76.3,74.2,69.7,96,88,70,30.04,29.94,13,2,17,0.12
2013-8-29,89.2,81.3,74.6,78.1,75.4,73.4,97,83,62,30.02,29.92,8,2,15,0.00
2013-8-30,91.6,82.2,74.5,78.6,74.6,69.4,98,79,51,30.00,29.89,10,1,12,0.01
2013-8-31,90.0,77.8,71.0,77.9,74.0,68.9,98,89,61,29.99,29.91,16,1,20,1.14
2013-9-1,86.2,77.7,73.2,79.3,75.7,72.6,99,94,78,30.01,29.92,9,0,13,0.46
2013-9-2,90.2,78.4,74.4,79.8,75.6,72.7,99,92,62,30.03,29.94,16,1,22,1.05
2013-9-3,87.3,78.4,72.8,79.8,75.5,72.2,99,91,74,30.01,29.93,8,1,12,0.05
2013-9-6,83.9,82.4,80.5,77.4,76.8,76.1,90,83,79,29.98,29.94,7,2,9,0.00
2013-9-7,86.6,80.0,75.7,77.9,75.4,71.7,95,86,69,29.98,29.89,10,1,16,0.13
2013-9-8,88.8,78.8,74.1,77.3,74.4,70.7,96,87,61,29.94,29.85,13,1,16,0.05
2013-9-9,87.2,80.8,74.9,78.4,75.5,72.0,97,85,67,29.99,29.89,11,2,17,0.18
2013-9-10,87.3,80.7,75.6,78.8,75.8,72.5,98,86,68,30.03,29.94,15,3,24,0.12
2013-9-11,86.5,80.1,76.5,78.6,75.8,73.1,97,87,73,30.02,29.95,11,2,17,0.08
2013-9-12,83.8,79.4,75.4,78.6,76.3,73.8,98,91,76,30.01,29.88,6,1,8,0.01
2013-9-13,91.9,82.1,73.9,78.8,75.2,71.0,99,81,52,29.90,29.79,8,1,12,0.00
2013-9-14,89.1,82.4,75.5,78.7,75.7,71.9,98,81,58,29.96,29.82,10,2,15,0.00
2013-9-15,83.6,79.2,74.6,79.5,76.5,71.8,96,92,82,30.06,29.92,12,1,23,0.15
2013-9-16,83.3,79.8,77.1,78.6,76.2,72.5,98,89,79,30.04,29.94,11,2,14,0.02
2013-9-17,83.2,77.7,74.9,78.2,75.6,72.8,97,93,82,30.01,29.91,8,1,12,0.60
2013-9-18,85.5,79.1,75.3,77.8,75.6,72.8,98,90,75,30.01,29.91,8,2,13,0.01
2013-9-19,86.9,79.8,74.3,78.2,74.9,72.4,97,86,68,30.00,29.92,10,2,13,0.00
2013-9-20,85.3,79.5,74.0,75.5,72.5,68.2,95,80,59,29.99,29.88,13,3,16,0.03
2013-9-21,85.7,79.4,73.3,76.5,74.5,72.1,97,85,68,29.91,29.77,8,1,12,0.02
2013-9-22,92.4,82.7,74.8,77.8,75.6,72.9,98,81,55,29.87,29.75,10,2,14,0.00
2013-9-23,88.3,79.5,76.6,80.6,77.1,74.7,97,93,72,29.97,29.85,13,0,26,0.23
2013-9-24,93.1,81.3,75.3,80.9,76.0,73.0,98,85,57,29.96,29.87,16,2,21,0.15
2013-9-25,90.0,78.8,73.9,80.8,76.0,72.7,99,91,72,29.92,29.80,14,1,17,0.16
2013-9-26,90.3,80.5,75.0,81.6,77.0,74.3,99,90,71,29.87,29.79,11,2,17,0.21
2013-9-27,88.8,80.6,74.7,76.6,74.0,68.0,98,82,52,29.91,29.81,10,2,13,0.00
2013-9-28,86.0,79.0,74.3,76.0,73.7,71.4,96,85,65,29.96,29.87,14,2,17,0.33
2013-9-29,85.4,79.1,73.3,75.8,72.4,69.1,98,81,59,29.96,29.86,12,2,18,0.12
2013-9-30,85.8,79.6,72.4,76.4,72.8,70.6,96,80,64,29.99,29.89,11,2,13,0.00
2013-10-1,85.9,80.9,74.6,77.1,73.9,72.3,96,80,65,30.01,29.94,11,3,15,0.00
2013-10-2,81.1,78.9,74.6,76.7,75.3,72.7,98,89,79,30.05,29.95,10,2,15,1.64
2013-10-3,82.7,77.7,74.2,78.3,74.9,72.5,98,91,80,30.05,29.94,10,1,16,1.14
2013-10-4,84.7,77.9,72.4,77.0,72.9,69.5,99,86,66,30.04,29.97,8,1,13,0.01
2013-10-5,86.6,79.4,71.9,74.9,72.1,65.4,95,80,50,30.02,29.92,9,2,14,0.00
2013-10-6,89.0,79.7,72.7,76.6,73.0,70.1,97,81,56,29.96,29.86,7,1,10,0.00
2013-10-7,91.1,78.5,72.0,76.9,73.5,69.5,98,86,58,29.90,29.81,19,2,29,0.97
2013-10-8,85.5,76.7,73.9,79.3,75.4,73.0,99,96,79,29.92,29.85,6,0,12,0.01
2013-10-12,84.5,75.9,68.5,73.4,68.8,66.7,97,80,58,30.01,29.94,8,1,12,0.02
2013-10-13,83.1,77.8,71.7,68.8,67.3,65.2,89,71,56,30.01,29.95,11,2,14,0.02
2013-10-14,83.3,76.4,70.3,71.7,69.5,66.9,95,80,62,30.01,29.89,10,2,13,0.00
2013-10-15,84.4,76.6,70.7,73.5,70.8,68.8,97,83,63,29.95,29.85,8,2,12,0.01
2013-10-16,83.8,76.7,69.6,73.9,71.0,68.4,97,83,66,29.94,29.87,9,2,12,0.00
2013-10-17,84.4,77.4,71.1,74.6,71.9,69.5,97,84,66,29.96,29.88,9,1,14,0.01
2013-10-18,85.6,78.5,71.1,75.5,72.7,70.2,98,83,66,29.98,29.89,10,1,15,0.00
2013-10-19,86.8,80.1,72.6,76.3,74.0,71.1,98,82,67,29.96,29.87,9,2,12,0.00
2013-10-20,90.5,80.1,75.1,78.7,75.5,73.0,98,87,59,29.96,29.87,9,2,12,0.09
2013-10-21,89.0,81.6,77.0,79.1,76.0,73.7,97,84,66,30.00,29.89,10,2,12,0.06
2013-10-22,89.0,81.0,74.0,78.5,75.8,73.1,99,85,66,29.96,29.83,12,2,14,0.00
2013-10-23,86.8,79.6,75.1,78.1,75.0,70.2,97,86,68,29.95,29.82,9,1,12,0.35
2013-10-24,79.1,75.8,71.8,71.4,67.9,64.7,87,77,69,30.08,29.92,11,3,15,0.00
2013-10-25,81.8,75.3,69.6,69.3,66.1,63.8,86,74,56,30.14,30.05,14,4,21,0.00
2013-10-26,80.8,73.7,67.6,68.6,65.9,64.4,92,78,58,30.14,30.04,10,2,14,0.00
2013-10-27,80.8,73.3,67.0,67.5,64.7,61.7,92,75,56,30.08,30.01,10,2,14,0.00
2013-10-28,82.2,74.3,66.5,69.7,66.0,62.1,95,77,52,30.14,30.04,10,2,15,0.00
2013-10-29,82.8,75.4,66.9,71.7,68.1,65.0,94,79,63,30.16,30.08,14,3,18,0.01
2013-10-30,82.8,77.7,69.5,71.0,68.3,65.7,92,73,60,30.17,30.07,12,4,20,0.03
2013-10-31,83.9,77.9,70.6,73.0,70.9,67.5,95,80,62,30.10,29.98,12,2,18,0.00
2013-11-1,85.5,78.8,71.3,75.9,73.0,70.0,97,83,67,30.00,29.88,10,2,12,0.00
2013-11-2,88.5,78.1,69.7,75.5,71.0,66.2,99,81,52,29.94,29.80,12,2,15,0.01
2013-11-3,80.2,72.8,67.6,66.6,63.8,61.2,87,74,60,30.01,29.89,13,5,21,0.00
2013-11-4,80.1,76.7,74.2,69.7,65.5,57.6,80,69,47,30.06,29.99,17,7,23,0.01
2013-11-5,81.1,77.6,73.0,72.5,69.7,66.5,91,77,68,30.07,30.00,18,7,24,0.06
2013-11-6,82.0,77.7,70.7,72.5,70.9,68.8,94,80,71,30.05,29.98,13,4,20,0.01
2013-11-7,86.1,76.3,68.6,73.2,70.0,67.2,97,82,55,30.01,29.90,8,2,12,0.00
2013-11-8,82.9,75.3,70.2,73.2,70.9,67.8,97,87,64,30.03,29.93,14,3,20,0.48
2013-11-9,80.2,76.1,72.9,74.0,72.7,71.1,96,89,80,30.10,30.00,16,6,21,0.18
2013-11-10,82.7,78.1,71.8,73.1,71.2,68.2,91,80,65,30.11,30.03,13,4,17,0.08
2013-11-11,82.3,75.7,70.4,72.6,69.7,67.7,94,82,68,30.10,30.03,13,2,17,0.00
2013-11-12,82.8,75.8,68.5,71.9,69.1,67.0,96,81,66,30.07,29.95,8,2,14,0.00
2013-11-13,75.4,72.2,69.8,69.0,65.2,59.1,89,79,68,30.19,29.99,17,6,24,0.01
2013-11-14,76.0,72.5,69.6,64.9,60.9,57.4,75,67,63,30.23,30.12,13,6,25,0.00
2013-11-15,80.0,75.1,71.6,70.8,67.8,62.8,95,79,65,30.13,30.02,14,4,16,0.42
2013-11-16,78.8,76.9,74.4,72.1,70.0,66.4,88,79,68,30.09,30.00,11,3,16,0.00
2013-11-17,82.0,77.1,71.5,73.0,70.9,69.1,95,82,69,30.07,29.99,13,3,16,0.00
2013-11-18,81.8,75.0,69.3,74.0,71.1,68.4,98,88,72,30.02,29.91,5,0,7,0.00
2013-11-19,85.8,75.1,70.4,74.8,71.8,69.2,97,90,67,29.94,29.84,8,1,10,0.06
2013-11-20,83.3,74.7,69.7,75.0,71.9,69.1,99,91,70,30.05,29.92,8,1,12,0.04
2013-11-21,81.8,74.9,70.6,74.8,72.0,70.0,98,91,71,30.13,30.04,14,2,18,3.19
2013-11-22,80.5,76.0,72.2,73.0,71.7,70.7,98,87,76,30.14,30.05,15,5,22,1.63
2013-11-23,80.7,76.1,71.4,73.4,71.5,68.7,95,86,76,30.06,29.96,12,2,16,0.00
2013-11-24,80.9,73.3,67.8,71.3,68.3,65.2,97,85,66,30.13,29.98,16,3,22,0.09
2013-11-25,75.0,72.9,70.5,70.1,66.4,62.6,93,80,73,30.18,30.03,17,7,24,0.09
2013-11-26,81.8,77.4,71.8,75.5,73.0,69.3,94,86,79,30.04,29.83,16,5,26,0.02
2013-11-27,78.5,71.3,59.6,75.3,65.3,53.3,98,82,55,30.11,29.79,13,4,20,0.69
2013-11-28,72.2,61.4,48.8,61.9,54.6,45.8,90,79,64,30.24,30.11,14,4,21,0.00
2013-11-29,75.1,68.3,59.4,64.0,60.5,57.4,94,77,63,30.26,30.17,13,4,21,0.00
2013-11-30,76.4,68.1,60.7,69.6,63.9,59.3,96,87,73,30.20,30.10,11,3,14,0.13
2013-12-1,75.4,67.8,61.4,70.6,65.8,59.9,97,93,80,30.10,29.94,9,1,12,0.12
2013-12-2,74.4,67.3,60.7,67.4,63.8,59.3,99,89,63,29.94,29.82,8,2,12,0.00
2013-12-3,79.3,69.1,59.1,66.3,63.3,58.2,98,84,57,30.00,29.90,9,1,12,0.01
2013-12-4,80.6,71.6,64.4,71.3,66.6,63.5,99,85,64,30.09,29.98,8,1,12,0.00
2013-12-5,81.0,73.3,65.5,72.0,69.0,64.6,99,87,71,30.16,30.07,10,2,15,0.01
2013-12-6,80.8,75.6,68.6,71.5,69.5,66.5,95,82,66,30.18,30.08,13,3,16,0.00
2013-12-7,81.3,73.1,65.9,72.4,68.6,64.8,99,87,66,30.21,30.12,10,2,14,0.02
2013-12-8,81.0,75.6,68.2,71.9,69.9,66.7,97,83,68,30.20,30.11,12,4,18,0.01
2013-12-9,81.4,76.4,69.8,71.2,69.3,65.8,95,80,61,30.19,30.10,13,3,18,0.00
2013-12-10,82.9,75.4,68.9,74.1,71.0,68.0,98,87,68,30.15,30.07,7,1,10,0.02
2013-12-11,82.1,74.6,69.2,74.1,71.2,68.5,99,90,73,30.19,30.11,12,2,15,0.01
2013-12-12,79.1,71.1,63.7,72.7,67.0,60.1,98,87,73,30.22,30.12,12,3,17,0.01
2013-12-13,76.8,70.5,61.7,69.5,65.4,59.3,95,84,72,30.18,30.08,12,3,17,0.62
2013-12-14,80.3,75.6,70.6,72.3,70.7,68.8,97,85,75,30.10,29.98,13,4,18,0.00
2013-12-15,83.9,75.9,70.5,76.2,72.3,68.7,98,89,72,30.05,29.93,11,2,17,0.01
2013-12-16,72.1,67.6,61.3,68.7,62.3,58.7,94,83,73,30.15,30.03,9,3,12,0.00
2013-12-17,76.2,66.1,58.3,66.7,60.8,56.9,95,84,66,30.18,30.09,11,3,16,0.00
2013-12-18,75.1,66.0,58.8,61.5,58.9,56.5,97,79,60,30.23,30.14,11,3,17,0.01
2013-12-19,76.3,67.8,57.6,65.5,60.7,56.1,96,79,62,30.23,30.14,13,2,18,0.00
2013-12-20,79.3,74.4,65.4,70.5,68.3,63.1,96,82,68,30.18,30.09,14,4,18,0.00
2013-12-21,80.5,77.1,74.4,73.2,71.8,70.3,89,84,77,30.14,30.05,14,5,21,0.00
2013-12-22,81.7,77.9,75.4,73.7,72.1,70.8,91,83,73,30.15,30.07,14,5,20,0.01
2013-12-23,82.7,76.7,69.5,73.8,71.8,68.3,97,85,70,30.17,30.10,13,3,16,0.00
2013-12-24,83.2,71.2,65.8,74.0,67.3,61.1,99,88,65,30.17,30.07,10,2,17,0.01
2013-12-25,75.5,72.6,67.2,68.1,66.6,62.5,88,81,76,30.16,30.08,14,5,22,0.00
2013-12-26,77.1,73.5,70.1,71.2,69.6,67.6,95,88,79,30.16,30.06,10,2,13,0.10
2013-12-27,79.8,73.8,67.7,72.0,69.8,66.8,98,88,76,30.18,30.08,12,3,16,0.01
2013-12-28,78.3,75.9,73.0,72.5,71.4,70.0,93,86,81,30.17,30.01,16,5,21,0.04
2013-12-29,80.0,76.5,72.9,74.5,73.1,71.7,97,89,83,30.04,29.93,12,3,20,0.00
2013-12-30,80.3,73.0,68.1,73.0,70.1,65.8,98,91,76,30.13,29.98,9,2,12,0.01
2013-12-31,77.3,72.0,65.8,69.5,65.5,62.4,92,80,69,30.21,30.10,14,5,21,0.00
2014-1-1,80.0,74.6,71.1,73.6,70.7,65.6,97,88,72,30.18,30.04,13,3,18,0.09
2014-1-2,85.2,74.8,66.3,73.0,69.3,65.7,99,84,60,30.04,29.87,14,2,20,0.01